Year,Month,Day,Hour,Minute,Value (Times are PST for windgust in km/hr)
2011,06,14,00,00,11.30
2011,06,14,00,01,6.40
2011,06,14,00,02,9.60
2011,06,14,00,03,11.30
2011,06,14,00,04,6.40
2011,06,14,00,05,11.30
2011,06,14,00,06,4.80
2011,06,14,00,07,4.80
2011,06,14,00,08,6.40
2011,06,14,00,09,17.70
2011,06,14,00,10,9.60
2011,06,14,00,11,4.80
2011,06,14,00,12,4.80
2011,06,14,00,13,1.60
2011,06,14,00,14,4.80
2011,06,14,00,15,1.60
2011,06,14,00,16,11.30
2011,06,14,00,17,9.60
2011,06,14,00,18,3.20
2011,06,14,00,19,6.40
2011,06,14,00,20,3.20
2011,06,14,00,21,1.60
2011,06,14,00,22,1.60
2011,06,14,00,23,1.60
2011,06,14,00,24,4.80
2011,06,14,00,25,4.80
2011,06,14,00,26,1.60
2011,06,14,00,27,9.60
2011,06,14,00,28,8.10
2011,06,14,00,29,4.80
2011,06,14,00,30,3.20
2011,06,14,00,31,1.60
2011,06,14,00,32,4.80
2011,06,14,00,33,14.50
2011,06,14,00,34,6.40
2011,06,14,00,35,8.10
2011,06,14,00,36,8.10
2011,06,14,00,37,16.10
2011,06,14,00,38,14.50
2011,06,14,00,39,16.10
2011,06,14,00,40,11.30
2011,06,14,00,41,8.10
2011,06,14,00,42,6.40
2011,06,14,00,43,11.30
2011,06,14,00,44,8.10
2011,06,14,00,45,3.20
2011,06,14,00,46,6.40
2011,06,14,00,47,8.10
2011,06,14,00,48,3.20
2011,06,14,00,49,9.60
2011,06,14,00,50,6.40
2011,06,14,00,51,8.10
2011,06,14,00,52,16.10
2011,06,14,00,53,16.10
2011,06,14,00,54,9.60
2011,06,14,00,55,8.10
2011,06,14,00,56,9.60
2011,06,14,00,57,9.60
2011,06,14,00,58,6.40
2011,06,14,00,59,6.40
2011,06,14,01,00,6.40
2011,06,14,01,01,1.60
2011,06,14,01,02,1.60
2011,06,14,01,03,8.10
2011,06,14,01,04,9.60
2011,06,14,01,05,16.10
2011,06,14,01,06,9.60
2011,06,14,01,07,14.50
2011,06,14,01,08,3.20
2011,06,14,01,09,6.40
2011,06,14,01,10,8.10
2011,06,14,01,11,8.10
2011,06,14,01,12,8.10
2011,06,14,01,13,8.10
2011,06,14,01,14,9.60
2011,06,14,01,15,11.30
2011,06,14,01,16,9.60
2011,06,14,01,17,9.60
2011,06,14,01,18,8.10
2011,06,14,01,19,4.80
2011,06,14,01,20,3.20
2011,06,14,01,21,8.10
2011,06,14,01,22,6.40
2011,06,14,01,23,4.80
2011,06,14,01,24,4.80
2011,06,14,01,25,9.60
2011,06,14,01,26,14.50
2011,06,14,01,27,6.40
2011,06,14,01,28,3.20
2011,06,14,01,29,4.80
2011,06,14,01,30,8.10
2011,06,14,01,31,4.80
2011,06,14,01,32,3.20
2011,06,14,01,33,4.80
2011,06,14,01,34,6.40
2011,06,14,01,35,4.80
2011,06,14,01,36,11.30
2011,06,14,01,37,8.10
2011,06,14,01,38,4.80
2011,06,14,01,39,3.20
2011,06,14,01,40,9.60
2011,06,14,01,41,1.60
2011,06,14,01,42,9.60
2011,06,14,01,43,6.40
2011,06,14,01,44,4.80
2011,06,14,01,45,9.60
2011,06,14,01,46,6.40
2011,06,14,01,47,8.10
2011,06,14,01,48,9.60
2011,06,14,01,49,6.40
2011,06,14,01,50,3.20
2011,06,14,01,51,3.20
2011,06,14,01,52,8.10
2011,06,14,01,53,3.20
2011,06,14,01,54,3.20
2011,06,14,01,55,6.40
2011,06,14,01,56,11.30
2011,06,14,01,57,4.80
2011,06,14,01,58,4.80
2011,06,14,01,59,3.20
2011,06,14,02,00,1.60
2011,06,14,02,01,4.80
2011,06,14,02,02,3.20
2011,06,14,02,03,4.80
2011,06,14,02,04,4.80
2011,06,14,02,06,3.20
2011,06,14,02,07,6.40
2011,06,14,02,08,4.80
2011,06,14,02,10,4.80
2011,06,14,02,11,4.80
2011,06,14,02,12,4.80
2011,06,14,02,13,4.80
2011,06,14,02,14,4.80
2011,06,14,02,15,3.20
2011,06,14,02,16,1.60
2011,06,14,02,17,8.10
2011,06,14,02,18,1.60
2011,06,14,02,19,6.40
2011,06,14,02,20,9.60
2011,06,14,02,21,4.80
2011,06,14,02,22,3.20
2011,06,14,02,23,6.40
2011,06,14,02,24,8.10
2011,06,14,02,25,6.40
2011,06,14,02,26,9.60
2011,06,14,02,27,6.40
2011,06,14,02,28,8.10
2011,06,14,02,29,6.40
2011,06,14,02,30,3.20
2011,06,14,02,31,3.20
2011,06,14,02,32,3.20
2011,06,14,02,33,3.20
2011,06,14,02,34,3.20
2011,06,14,02,35,1.60
2011,06,14,02,36,3.20
2011,06,14,02,37,8.10
2011,06,14,02,38,6.40
2011,06,14,02,39,4.80
2011,06,14,02,40,4.80
2011,06,14,02,41,3.20
2011,06,14,02,42,4.80
2011,06,14,02,43,4.80
2011,06,14,02,44,3.20
2011,06,14,02,45,3.20
2011,06,14,02,46,3.20
2011,06,14,02,47,4.80
2011,06,14,02,48,3.20
2011,06,14,02,49,3.20
2011,06,14,02,50,1.60
2011,06,14,02,51,1.60
2011,06,14,02,52,3.20
2011,06,14,02,53,6.40
2011,06,14,02,54,4.80
2011,06,14,02,55,4.80
2011,06,14,02,56,4.80
2011,06,14,02,57,3.20
2011,06,14,02,58,4.80
2011,06,14,02,59,4.80
2011,06,14,03,00,3.20
2011,06,14,03,01,1.60
2011,06,14,03,02,3.20
2011,06,14,03,03,9.60
2011,06,14,03,04,9.60
2011,06,14,03,05,8.10
2011,06,14,03,06,8.10
2011,06,14,03,07,8.10
2011,06,14,03,08,3.20
2011,06,14,03,09,4.80
2011,06,14,03,10,4.80
2011,06,14,03,11,1.60
2011,06,14,03,12,6.40
2011,06,14,03,13,4.80
2011,06,14,03,14,8.10
2011,06,14,03,15,4.80
2011,06,14,03,16,6.40
2011,06,14,03,17,6.40
2011,06,14,03,18,4.80
2011,06,14,03,19,9.60
2011,06,14,03,20,4.80
2011,06,14,03,21,6.40
2011,06,14,03,22,6.40
2011,06,14,03,23,1.60
2011,06,14,03,24,1.60
2011,06,14,03,25,4.80
2011,06,14,03,26,4.80
2011,06,14,03,27,1.60
2011,06,14,03,28,3.20
2011,06,14,03,29,3.20
2011,06,14,03,30,1.60
2011,06,14,03,31,1.60
2011,06,14,03,32,4.80
2011,06,14,03,33,6.40
2011,06,14,03,34,3.20
2011,06,14,03,35,6.40
2011,06,14,03,36,4.80
2011,06,14,03,37,4.80
2011,06,14,03,38,4.80
2011,06,14,03,39,3.20
2011,06,14,03,40,6.40
2011,06,14,03,41,6.40
2011,06,14,03,42,1.60
2011,06,14,03,43,1.60
2011,06,14,03,44,3.20
2011,06,14,03,45,3.20
2011,06,14,03,46,3.20
2011,06,14,03,47,1.60
2011,06,14,03,48,3.20
2011,06,14,03,49,6.40
2011,06,14,03,50,4.80
2011,06,14,03,51,4.80
2011,06,14,03,52,4.80
2011,06,14,03,53,3.20
2011,06,14,03,54,6.40
2011,06,14,03,55,4.80
2011,06,14,03,56,3.20
2011,06,14,03,57,1.60
2011,06,14,03,58,1.60
2011,06,14,03,59,3.20
2011,06,14,04,00,8.10
2011,06,14,04,01,4.80
2011,06,14,04,02,3.20
2011,06,14,04,03,3.20
2011,06,14,04,04,1.60
2011,06,14,04,05,6.40
2011,06,14,04,06,4.80
2011,06,14,04,07,4.80
2011,06,14,04,08,4.80
2011,06,14,04,09,4.80
2011,06,14,04,10,9.60
2011,06,14,04,11,9.60
2011,06,14,04,12,4.80
2011,06,14,04,13,9.60
2011,06,14,04,14,6.40
2011,06,14,04,15,6.40
2011,06,14,04,16,8.10
2011,06,14,04,17,11.30
2011,06,14,04,18,6.40
2011,06,14,04,19,1.60
2011,06,14,04,20,6.40
2011,06,14,04,21,9.60
2011,06,14,04,22,4.80
2011,06,14,04,23,1.60
2011,06,14,04,24,3.20
2011,06,14,04,25,8.10
2011,06,14,04,26,6.40
2011,06,14,04,27,4.80
2011,06,14,04,28,6.40
2011,06,14,04,29,4.80
2011,06,14,04,30,8.10
2011,06,14,04,31,6.40
2011,06,14,04,32,9.60
2011,06,14,04,33,4.80
2011,06,14,04,34,4.80
2011,06,14,04,35,6.40
2011,06,14,04,36,6.40
2011,06,14,04,37,6.40
2011,06,14,04,38,8.10
2011,06,14,04,39,6.40
2011,06,14,04,40,4.80
2011,06,14,04,41,3.20
2011,06,14,04,42,3.20
2011,06,14,04,43,3.20
2011,06,14,04,44,3.20
2011,06,14,04,45,3.20
2011,06,14,04,46,1.60
2011,06,14,04,47,1.60
2011,06,14,04,48,1.60
2011,06,14,04,49,3.20
2011,06,14,04,50,1.60
2011,06,14,04,51,4.80
2011,06,14,04,52,4.80
2011,06,14,04,53,4.80
2011,06,14,04,54,4.80
2011,06,14,04,55,3.20
2011,06,14,04,56,4.80
2011,06,14,04,57,4.80
2011,06,14,04,58,1.60
2011,06,14,04,59,3.20
2011,06,14,05,00,3.20
2011,06,14,05,01,4.80
2011,06,14,05,02,6.40
2011,06,14,05,03,1.60
2011,06,14,05,04,1.60
2011,06,14,05,05,1.60
2011,06,14,05,06,1.60
2011,06,14,05,07,3.20
2011,06,14,05,08,3.20
2011,06,14,05,09,4.80
2011,06,14,05,10,3.20
2011,06,14,05,11,4.80
2011,06,14,05,12,6.40
2011,06,14,05,13,3.20
2011,06,14,05,14,3.20
2011,06,14,05,15,1.60
2011,06,14,05,17,1.60
2011,06,14,05,18,1.60
2011,06,14,05,23,1.60
2011,06,14,05,24,3.20
2011,06,14,05,25,1.60
2011,06,14,05,26,1.60
2011,06,14,05,27,1.60
2011,06,14,05,28,1.60
2011,06,14,05,29,1.60
2011,06,14,05,31,1.60
2011,06,14,05,32,4.80
2011,06,14,05,33,3.20
2011,06,14,05,34,1.60
2011,06,14,05,35,1.60
2011,06,14,05,42,1.60
2011,06,14,05,46,1.60
2011,06,14,05,47,4.80
2011,06,14,05,48,3.20
2011,06,14,05,49,3.20
2011,06,14,05,50,1.60
2011,06,14,05,51,3.20
2011,06,14,05,52,3.20
2011,06,14,05,53,3.20
2011,06,14,05,54,3.20
2011,06,14,05,55,1.60
2011,06,14,05,56,4.80
2011,06,14,05,57,4.80
2011,06,14,05,58,1.60
2011,06,14,05,59,3.20
2011,06,14,06,00,6.40
2011,06,14,06,01,4.80
2011,06,14,06,02,3.20
2011,06,14,06,03,3.20
2011,06,14,06,04,3.20
2011,06,14,06,05,1.60
2011,06,14,06,06,4.80
2011,06,14,06,07,6.40
2011,06,14,06,08,1.60
2011,06,14,06,09,3.20
2011,06,14,06,10,4.80
2011,06,14,06,11,3.20
2011,06,14,06,12,4.80
2011,06,14,06,13,3.20
2011,06,14,06,14,3.20
2011,06,14,06,15,4.80
2011,06,14,06,16,1.60
2011,06,14,06,17,3.20
2011,06,14,06,18,4.80
2011,06,14,06,19,4.80
2011,06,14,06,20,4.80
2011,06,14,06,21,4.80
2011,06,14,06,22,3.20
2011,06,14,06,23,1.60
2011,06,14,06,25,3.20
2011,06,14,06,26,3.20
2011,06,14,06,27,3.20
2011,06,14,06,28,1.60
2011,06,14,06,31,1.60
2011,06,14,06,32,3.20
2011,06,14,06,33,4.80
2011,06,14,06,34,4.80
2011,06,14,06,35,3.20
2011,06,14,06,36,6.40
2011,06,14,06,37,9.60
2011,06,14,06,38,9.60
2011,06,14,06,39,11.30
2011,06,14,06,40,11.30
2011,06,14,06,41,11.30
2011,06,14,06,42,9.60
2011,06,14,06,43,3.20
2011,06,14,06,44,9.60
2011,06,14,06,45,8.10
2011,06,14,06,46,4.80
2011,06,14,06,47,3.20
2011,06,14,06,48,3.20
2011,06,14,06,49,8.10
2011,06,14,06,50,14.50
2011,06,14,06,51,6.40
2011,06,14,06,52,4.80
2011,06,14,06,53,3.20
2011,06,14,06,54,8.10
2011,06,14,06,55,6.40
2011,06,14,06,56,6.40
2011,06,14,06,57,6.40
2011,06,14,06,58,9.60
2011,06,14,06,59,8.10
2011,06,14,07,00,4.80
2011,06,14,07,01,9.60
2011,06,14,07,02,16.10
2011,06,14,07,03,6.40
2011,06,14,07,04,12.90
2011,06,14,07,05,4.80
2011,06,14,07,06,11.30
2011,06,14,07,07,17.70
2011,06,14,07,08,19.30
2011,06,14,07,09,8.10
2011,06,14,07,10,6.40
2011,06,14,07,11,16.10
2011,06,14,07,12,19.30
2011,06,14,07,13,16.10
2011,06,14,07,14,6.40
2011,06,14,07,15,16.10
2011,06,14,07,16,11.30
2011,06,14,07,17,11.30
2011,06,14,07,18,8.10
2011,06,14,07,19,11.30
2011,06,14,07,20,11.30
2011,06,14,07,21,16.10
2011,06,14,07,22,8.10
2011,06,14,07,23,6.40
2011,06,14,07,24,3.20
2011,06,14,07,25,4.80
2011,06,14,07,26,11.30
2011,06,14,07,27,4.80
2011,06,14,07,28,4.80
2011,06,14,07,30,1.60
2011,06,14,07,31,6.40
2011,06,14,07,32,6.40
2011,06,14,07,33,11.30
2011,06,14,07,34,8.10
2011,06,14,07,35,6.40
2011,06,14,07,36,8.10
2011,06,14,07,37,8.10
2011,06,14,07,38,8.10
2011,06,14,07,39,6.40
2011,06,14,07,40,8.10
2011,06,14,07,41,1.60
2011,06,14,07,42,1.60
2011,06,14,07,43,1.60
2011,06,14,07,44,9.60
2011,06,14,07,45,8.10
2011,06,14,07,46,6.40
2011,06,14,07,47,11.30
2011,06,14,07,48,16.10
2011,06,14,07,49,4.80
2011,06,14,07,50,1.60
2011,06,14,07,51,4.80
2011,06,14,07,52,11.30
2011,06,14,07,53,12.90
2011,06,14,07,54,6.40
2011,06,14,07,55,9.60
2011,06,14,07,56,11.30
2011,06,14,07,57,3.20
2011,06,14,07,58,9.60
2011,06,14,07,59,3.20
2011,06,14,08,00,1.60
2011,06,14,08,01,3.20
2011,06,14,08,02,11.30
2011,06,14,08,03,9.60
2011,06,14,08,04,4.80
2011,06,14,08,05,8.10
2011,06,14,08,06,8.10
2011,06,14,08,07,8.10
2011,06,14,08,08,6.40
2011,06,14,08,09,1.60
2011,06,14,08,10,3.20
2011,06,14,08,11,4.80
2011,06,14,08,12,9.60
2011,06,14,08,13,9.60
2011,06,14,08,14,14.50
2011,06,14,08,15,4.80
2011,06,14,08,16,4.80
2011,06,14,08,17,16.10
2011,06,14,08,18,16.10
2011,06,14,08,19,11.30
2011,06,14,08,20,11.30
2011,06,14,08,21,11.30
2011,06,14,08,22,11.30
2011,06,14,08,23,11.30
2011,06,14,08,24,9.60
2011,06,14,08,25,8.10
2011,06,14,08,26,11.30
2011,06,14,08,27,11.30
2011,06,14,08,28,9.60
2011,06,14,08,29,9.60
2011,06,14,08,30,6.40
2011,06,14,08,31,9.60
2011,06,14,08,32,11.30
2011,06,14,08,33,11.30
2011,06,14,08,34,16.10
2011,06,14,08,35,14.50
2011,06,14,08,36,11.30
2011,06,14,08,37,9.60
2011,06,14,08,38,8.10
2011,06,14,08,39,3.20
2011,06,14,08,40,11.30
2011,06,14,08,41,17.70
2011,06,14,08,42,14.50
2011,06,14,08,43,4.80
2011,06,14,08,44,11.30
2011,06,14,08,45,9.60
2011,06,14,08,46,4.80
2011,06,14,08,47,8.10
2011,06,14,08,48,4.80
2011,06,14,08,49,4.80
2011,06,14,08,50,9.60
2011,06,14,08,51,9.60
2011,06,14,08,52,8.10
2011,06,14,08,53,6.40
2011,06,14,08,54,9.60
2011,06,14,08,55,8.10
2011,06,14,08,56,9.60
2011,06,14,08,57,11.30
2011,06,14,08,58,8.10
2011,06,14,08,59,8.10
2011,06,14,09,00,6.40
2011,06,14,09,01,8.10
2011,06,14,09,02,16.10
2011,06,14,09,03,14.50
2011,06,14,09,04,17.70
2011,06,14,09,05,14.50
2011,06,14,09,06,12.90
2011,06,14,09,07,11.30
2011,06,14,09,08,14.50
2011,06,14,09,09,9.60
2011,06,14,09,10,12.90
2011,06,14,09,11,9.60
2011,06,14,09,12,14.50
2011,06,14,09,13,16.10
2011,06,14,09,14,16.10
2011,06,14,09,15,12.90
2011,06,14,09,16,14.50
2011,06,14,09,17,6.40
2011,06,14,09,18,9.60
2011,06,14,09,19,11.30
2011,06,14,09,20,16.10
2011,06,14,09,21,9.60
2011,06,14,09,22,16.10
2011,06,14,09,23,16.10
2011,06,14,09,24,9.60
2011,06,14,09,25,8.10
2011,06,14,09,26,12.90
2011,06,14,09,27,4.80
2011,06,14,09,28,16.10
2011,06,14,09,29,11.30
2011,06,14,09,30,11.30
2011,06,14,09,31,6.40
2011,06,14,09,32,14.50
2011,06,14,09,33,14.50
2011,06,14,09,34,8.10
2011,06,14,09,35,9.60
2011,06,14,09,36,16.10
2011,06,14,09,37,9.60
2011,06,14,09,38,9.60
2011,06,14,09,39,9.60
2011,06,14,09,40,9.60
2011,06,14,09,41,9.60
2011,06,14,09,42,6.40
2011,06,14,09,43,9.60
2011,06,14,09,44,11.30
2011,06,14,09,45,11.30
2011,06,14,09,46,3.20
2011,06,14,09,47,8.10
2011,06,14,09,48,4.80
2011,06,14,09,49,9.60
2011,06,14,09,50,6.40
2011,06,14,09,51,4.80
2011,06,14,09,52,6.40
2011,06,14,09,53,8.10
2011,06,14,09,54,8.10
2011,06,14,09,55,6.40
2011,06,14,09,56,1.60
2011,06,14,09,57,11.30
2011,06,14,09,58,14.50
2011,06,14,09,59,11.30
2011,06,14,10,00,16.10
2011,06,14,10,01,9.60
2011,06,14,10,02,6.40
2011,06,14,10,03,8.10
2011,06,14,10,04,8.10
2011,06,14,10,05,8.10
2011,06,14,10,06,19.30
2011,06,14,10,07,19.30
2011,06,14,10,08,11.30
2011,06,14,10,09,19.30
2011,06,14,10,10,22.50
2011,06,14,10,11,20.90
2011,06,14,10,12,14.50
2011,06,14,10,13,11.30
2011,06,14,10,14,12.90
2011,06,14,10,15,8.10
2011,06,14,10,16,16.10
2011,06,14,10,17,19.30
2011,06,14,10,18,19.30
2011,06,14,10,19,17.70
2011,06,14,10,20,9.60
2011,06,14,10,21,8.10
2011,06,14,10,22,16.10
2011,06,14,10,23,8.10
2011,06,14,10,24,8.10
2011,06,14,10,25,17.70
2011,06,14,10,26,17.70
2011,06,14,10,27,19.30
2011,06,14,10,28,19.30
2011,06,14,10,29,20.90
2011,06,14,10,30,20.90
2011,06,14,10,31,19.30
2011,06,14,10,32,25.70
2011,06,14,10,33,24.20
2011,06,14,10,34,22.50
2011,06,14,10,35,20.90
2011,06,14,10,36,22.50
2011,06,14,10,37,16.10
2011,06,14,10,38,9.60
2011,06,14,10,39,14.50
2011,06,14,10,40,19.30
2011,06,14,10,41,14.50
2011,06,14,10,42,19.30
2011,06,14,10,43,24.20
2011,06,14,10,44,20.90
2011,06,14,10,45,19.30
2011,06,14,10,46,19.30
2011,06,14,10,47,19.30
2011,06,14,10,48,16.10
2011,06,14,10,49,19.30
2011,06,14,10,50,16.10
2011,06,14,10,51,22.50
2011,06,14,10,52,9.60
2011,06,14,10,53,14.50
2011,06,14,10,54,16.10
2011,06,14,10,55,16.10
2011,06,14,10,56,17.70
2011,06,14,10,57,19.30
2011,06,14,10,58,14.50
2011,06,14,10,59,14.50
2011,06,14,11,00,9.60
2011,06,14,11,01,9.60
2011,06,14,11,02,11.30
2011,06,14,11,03,16.10
2011,06,14,11,04,16.10
2011,06,14,11,05,9.60
2011,06,14,11,06,9.60
2011,06,14,11,07,6.40
2011,06,14,11,08,11.30
2011,06,14,11,09,14.50
2011,06,14,11,10,11.30
2011,06,14,11,11,19.30
2011,06,14,11,12,20.90
2011,06,14,11,13,14.50
2011,06,14,11,14,11.30
2011,06,14,11,15,8.10
2011,06,14,11,16,11.30
2011,06,14,11,17,19.30
2011,06,14,11,18,14.50
2011,06,14,11,19,19.30
2011,06,14,11,20,19.30
2011,06,14,11,21,17.70
2011,06,14,11,22,17.70
2011,06,14,11,23,8.10
2011,06,14,11,24,16.10
2011,06,14,11,25,4.80
2011,06,14,11,26,4.80
2011,06,14,11,27,8.10
2011,06,14,11,28,17.70
2011,06,14,11,29,14.50
2011,06,14,11,30,6.40
2011,06,14,11,31,6.40
2011,06,14,11,32,6.40
2011,06,14,11,33,16.10
2011,06,14,11,34,17.70
2011,06,14,11,35,17.70
2011,06,14,11,36,16.10
2011,06,14,11,37,9.60
2011,06,14,11,38,16.10
2011,06,14,11,39,20.90
2011,06,14,11,40,14.50
2011,06,14,11,41,16.10
2011,06,14,11,42,14.50
2011,06,14,11,43,20.90
2011,06,14,11,44,16.10
2011,06,14,11,45,20.90
2011,06,14,11,46,19.30
2011,06,14,11,47,11.30
2011,06,14,11,48,12.90
2011,06,14,11,49,12.90
2011,06,14,11,50,12.90
2011,06,14,11,51,20.90
2011,06,14,11,52,22.50
2011,06,14,11,53,14.50
2011,06,14,11,54,17.70
2011,06,14,11,55,19.30
2011,06,14,11,56,16.10
2011,06,14,11,57,16.10
2011,06,14,11,58,14.50
2011,06,14,11,59,16.10
2011,06,14,12,00,17.70
2011,06,14,12,01,19.30
2011,06,14,12,02,16.10
2011,06,14,12,03,19.30
2011,06,14,12,04,17.70
2011,06,14,12,05,16.10
2011,06,14,12,06,17.70
2011,06,14,12,07,16.10
2011,06,14,12,08,20.90
2011,06,14,12,09,14.50
2011,06,14,12,10,19.30
2011,06,14,12,11,14.50
2011,06,14,12,12,16.10
2011,06,14,12,13,16.10
2011,06,14,12,14,17.70
2011,06,14,12,15,17.70
2011,06,14,12,16,20.90
2011,06,14,12,17,22.50
2011,06,14,12,18,17.70
2011,06,14,12,19,14.50
2011,06,14,12,20,19.30
2011,06,14,12,21,16.10
2011,06,14,12,22,17.70
2011,06,14,12,23,16.10
2011,06,14,12,24,19.30
2011,06,14,12,25,19.30
2011,06,14,12,26,17.70
2011,06,14,12,27,19.30
2011,06,14,12,28,16.10
2011,06,14,12,29,14.50
2011,06,14,12,30,17.70
2011,06,14,12,31,19.30
2011,06,14,12,32,11.30
2011,06,14,12,33,17.70
2011,06,14,12,34,11.30
2011,06,14,12,35,20.90
2011,06,14,12,36,17.70
2011,06,14,12,37,6.40
2011,06,14,12,38,8.10
2011,06,14,12,39,11.30
2011,06,14,12,40,6.40
2011,06,14,12,41,11.30
2011,06,14,12,42,9.60
2011,06,14,12,43,8.10
2011,06,14,12,44,17.70
2011,06,14,12,45,11.30
2011,06,14,12,46,6.40
2011,06,14,12,47,4.80
2011,06,14,12,48,6.40
2011,06,14,12,49,4.80
2011,06,14,12,50,6.40
2011,06,14,12,51,8.10
2011,06,14,12,52,6.40
2011,06,14,12,53,4.80
2011,06,14,12,54,4.80
2011,06,14,12,55,9.60
2011,06,14,12,56,11.30
2011,06,14,12,57,8.10
2011,06,14,12,58,8.10
2011,06,14,12,59,1.60
2011,06,14,13,00,4.80
2011,06,14,13,01,9.60
2011,06,14,13,02,3.20
2011,06,14,13,03,4.80
2011,06,14,13,04,8.10
2011,06,14,13,05,4.80
2011,06,14,13,06,6.40
2011,06,14,13,07,11.30
2011,06,14,13,08,6.40
2011,06,14,13,09,8.10
2011,06,14,13,10,6.40
2011,06,14,13,11,8.10
2011,06,14,13,12,4.80
2011,06,14,13,13,6.40
2011,06,14,13,14,6.40
2011,06,14,13,15,8.10
2011,06,14,13,16,6.40
2011,06,14,13,17,4.80
2011,06,14,13,18,3.20
2011,06,14,13,19,4.80
2011,06,14,13,20,8.10
2011,06,14,13,21,8.10
2011,06,14,13,22,8.10
2011,06,14,13,23,6.40
2011,06,14,13,24,6.40
2011,06,14,13,25,6.40
2011,06,14,13,26,9.60
2011,06,14,13,27,6.40
2011,06,14,13,28,14.50
2011,06,14,13,29,16.10
2011,06,14,13,30,8.10
2011,06,14,13,31,6.40
2011,06,14,13,32,4.80
2011,06,14,13,33,8.10
2011,06,14,13,34,9.60
2011,06,14,13,35,6.40
2011,06,14,13,36,8.10
2011,06,14,13,37,8.10
2011,06,14,13,38,9.60
2011,06,14,13,39,8.10
2011,06,14,13,40,8.10
2011,06,14,13,41,8.10
2011,06,14,13,42,3.20
2011,06,14,13,43,4.80
2011,06,14,13,44,4.80
2011,06,14,13,45,6.40
2011,06,14,13,46,6.40
2011,06,14,13,47,6.40
2011,06,14,13,48,4.80
2011,06,14,13,49,8.10
2011,06,14,13,50,6.40
2011,06,14,13,51,4.80
2011,06,14,13,52,6.40
2011,06,14,13,53,4.80
2011,06,14,13,54,9.60
2011,06,14,13,55,8.10
2011,06,14,13,56,8.10
2011,06,14,13,57,8.10
2011,06,14,13,58,9.60
2011,06,14,13,59,11.30
2011,06,14,14,00,17.70
2011,06,14,14,01,14.50
2011,06,14,14,02,8.10
2011,06,14,14,03,8.10
2011,06,14,14,04,6.40
2011,06,14,14,05,8.10
2011,06,14,14,06,14.50
2011,06,14,14,07,9.60
2011,06,14,14,08,8.10
2011,06,14,14,09,17.70
2011,06,14,14,10,19.30
2011,06,14,14,11,11.30
2011,06,14,14,12,16.10
2011,06,14,14,13,9.60
2011,06,14,14,14,16.10
2011,06,14,14,15,17.70
2011,06,14,14,16,14.50
2011,06,14,14,17,17.70
2011,06,14,14,18,17.70
2011,06,14,14,19,19.30
2011,06,14,14,20,19.30
2011,06,14,14,21,16.10
2011,06,14,14,22,20.90
2011,06,14,14,23,20.90
2011,06,14,14,24,16.10
2011,06,14,14,25,11.30
2011,06,14,14,26,12.90
2011,06,14,14,27,14.50
2011,06,14,14,28,4.80
2011,06,14,14,29,8.10
2011,06,14,14,30,14.50
2011,06,14,14,31,14.50
2011,06,14,14,32,12.90
2011,06,14,14,33,16.10
2011,06,14,14,34,16.10
2011,06,14,14,35,9.60
2011,06,14,14,36,12.90
2011,06,14,14,37,17.70
2011,06,14,14,38,14.50
2011,06,14,14,39,11.30
2011,06,14,14,40,19.30
2011,06,14,14,41,20.90
2011,06,14,14,42,17.70
2011,06,14,14,43,14.50
2011,06,14,14,44,17.70
2011,06,14,14,45,17.70
2011,06,14,14,46,16.10
2011,06,14,14,47,11.30
2011,06,14,14,48,14.50
2011,06,14,14,49,12.90
2011,06,14,14,50,6.40
2011,06,14,14,51,9.60
2011,06,14,14,52,11.30
2011,06,14,14,53,14.50
2011,06,14,14,54,14.50
2011,06,14,14,55,14.50
2011,06,14,14,56,9.60
2011,06,14,14,57,8.10
2011,06,14,14,58,11.30
2011,06,14,14,59,9.60
2011,06,14,15,00,11.30
2011,06,14,15,01,11.30
2011,06,14,15,02,12.90
2011,06,14,15,03,11.30
2011,06,14,15,04,11.30
2011,06,14,15,05,8.10
2011,06,14,15,06,11.30
2011,06,14,15,07,9.60
2011,06,14,15,08,9.60
2011,06,14,15,09,6.40
2011,06,14,15,10,11.30
2011,06,14,15,11,11.30
2011,06,14,15,12,11.30
2011,06,14,15,13,9.60
2011,06,14,15,14,9.60
2011,06,14,15,15,8.10
2011,06,14,15,16,8.10
2011,06,14,15,17,8.10
2011,06,14,15,18,8.10
2011,06,14,15,19,11.30
2011,06,14,15,20,9.60
2011,06,14,15,21,11.30
2011,06,14,15,22,9.60
2011,06,14,15,23,9.60
2011,06,14,15,24,8.10
2011,06,14,15,25,11.30
2011,06,14,15,26,9.60
2011,06,14,15,27,6.40
2011,06,14,15,28,6.40
2011,06,14,15,29,6.40
2011,06,14,15,30,9.60
2011,06,14,15,31,9.60
2011,06,14,15,32,8.10
2011,06,14,15,33,9.60
2011,06,14,15,34,11.30
2011,06,14,15,35,6.40
2011,06,14,15,36,9.60
2011,06,14,15,37,6.40
2011,06,14,15,38,6.40
2011,06,14,15,39,11.30
2011,06,14,15,40,11.30
2011,06,14,15,41,8.10
2011,06,14,15,42,9.60
2011,06,14,15,43,9.60
2011,06,14,15,44,3.20
2011,06,14,15,45,6.40
2011,06,14,15,46,4.80
2011,06,14,15,47,4.80
2011,06,14,15,48,8.10
2011,06,14,15,49,6.40
2011,06,14,15,50,8.10
2011,06,14,15,51,8.10
2011,06,14,15,52,6.40
2011,06,14,15,53,6.40
2011,06,14,15,54,4.80
2011,06,14,15,55,8.10
2011,06,14,15,56,8.10
2011,06,14,15,57,6.40
2011,06,14,15,58,3.20
2011,06,14,15,59,4.80
2011,06,14,16,00,8.10
2011,06,14,16,01,4.80
2011,06,14,16,02,6.40
2011,06,14,16,03,3.20
2011,06,14,16,04,1.60
2011,06,14,16,05,3.20
2011,06,14,16,06,3.20
2011,06,14,16,07,3.20
2011,06,14,16,08,1.60
2011,06,14,16,09,1.60
2011,06,14,16,10,1.60
2011,06,14,16,11,4.80
2011,06,14,16,12,3.20
2011,06,14,16,13,1.60
2011,06,14,16,14,3.20
2011,06,14,16,15,3.20
2011,06,14,16,16,3.20
2011,06,14,16,17,3.20
2011,06,14,16,18,3.20
2011,06,14,16,19,1.60
2011,06,14,16,20,3.20
2011,06,14,16,21,4.80
2011,06,14,16,22,1.60
2011,06,14,16,23,6.40
2011,06,14,16,24,3.20
2011,06,14,16,25,3.20
2011,06,14,16,26,1.60
2011,06,14,16,27,6.40
2011,06,14,16,28,8.10
2011,06,14,16,29,16.10
2011,06,14,16,30,17.70
2011,06,14,16,31,9.60
2011,06,14,16,32,6.40
2011,06,14,16,33,11.30
2011,06,14,16,34,9.60
2011,06,14,16,35,9.60
2011,06,14,16,36,11.30
2011,06,14,16,37,8.10
2011,06,14,16,38,1.60
2011,06,14,16,39,1.60
2011,06,14,16,40,4.80
2011,06,14,16,41,4.80
2011,06,14,16,42,11.30
2011,06,14,16,43,20.90
2011,06,14,16,44,14.50
2011,06,14,16,45,17.70
2011,06,14,16,46,11.30
2011,06,14,16,47,9.60
2011,06,14,16,48,6.40
2011,06,14,16,49,9.60
2011,06,14,16,50,8.10
2011,06,14,16,51,11.30
2011,06,14,16,52,11.30
2011,06,14,16,53,16.10
2011,06,14,16,54,14.50
2011,06,14,16,55,14.50
2011,06,14,16,56,17.70
2011,06,14,16,57,11.30
2011,06,14,16,58,9.60
2011,06,14,16,59,6.40
2011,06,14,17,00,6.40
2011,06,14,17,01,6.40
2011,06,14,17,02,9.60
2011,06,14,17,03,9.60
2011,06,14,17,04,9.60
2011,06,14,17,05,17.70
2011,06,14,17,06,8.10
2011,06,14,17,07,17.70
2011,06,14,17,08,16.10
2011,06,14,17,09,3.20
2011,06,14,17,10,1.60
2011,06,14,17,11,8.10
2011,06,14,17,12,4.80
2011,06,14,17,13,1.60
2011,06,14,17,14,9.60
2011,06,14,17,15,16.10
2011,06,14,17,16,9.60
2011,06,14,17,17,17.70
2011,06,14,17,18,11.30
2011,06,14,17,19,16.10
2011,06,14,17,20,11.30
2011,06,14,17,21,17.70
2011,06,14,17,22,20.90
2011,06,14,17,23,17.70
2011,06,14,17,24,14.50
2011,06,14,17,25,12.90
2011,06,14,17,26,11.30
2011,06,14,17,27,9.60
2011,06,14,17,28,17.70
2011,06,14,17,29,9.60
2011,06,14,17,30,8.10
2011,06,14,17,31,11.30
2011,06,14,17,32,16.10
2011,06,14,17,33,16.10
2011,06,14,17,34,16.10
2011,06,14,17,35,4.80
2011,06,14,17,36,4.80
2011,06,14,17,37,16.10
2011,06,14,17,38,20.90
2011,06,14,17,39,8.10
2011,06,14,17,40,9.60
2011,06,14,17,41,8.10
2011,06,14,17,42,19.30
2011,06,14,17,43,16.10
2011,06,14,17,44,19.30
2011,06,14,17,45,6.40
2011,06,14,17,46,4.80
2011,06,14,17,47,4.80
2011,06,14,17,48,8.10
2011,06,14,17,49,6.40
2011,06,14,17,50,11.30
2011,06,14,17,51,9.60
2011,06,14,17,52,11.30
2011,06,14,17,53,11.30
2011,06,14,17,54,19.30
2011,06,14,17,55,8.10
2011,06,14,17,56,9.60
2011,06,14,17,57,6.40
2011,06,14,17,58,8.10
2011,06,14,17,59,9.60
2011,06,14,18,00,11.30
2011,06,14,18,01,16.10
2011,06,14,18,02,17.70
2011,06,14,18,03,8.10
2011,06,14,18,04,9.60
2011,06,14,18,05,4.80
2011,06,14,18,06,4.80
2011,06,14,18,07,8.10
2011,06,14,18,08,3.20
2011,06,14,18,09,3.20
2011,06,14,18,10,4.80
2011,06,14,18,11,19.30
2011,06,14,18,12,17.70